Location: Fort Worth, Tx
(32.7431°N, 97.3695°W)
Time: 16:53:34
(UTC-04:00)

A-11 Canister half - Pass Details

Date: 01 March 2024
Orbit: 1525 x 1683 km, 47.3° (Epoch: 21 April)

Event Time Altitude Azimuth Distance (km) Brightness Sun altitude
Rises 21:23:07 0° 255° (WSW) 4,813 12.7 -25.1°
Reaches altitude 10° 21:26:26 10° 261° (W) 3,806 12.0 -25.8°
Maximum altitude 21:35:41 50° 335° (NNW) 1,923 9.6 -27.7°
Enters shadow 21:41:36 23° 39° (NE) 2,829 10.1 -28.9°
